Regional Weather Roundup
Issued by NWS Albany, NY

Current Version | Previous Version | Graphics & Text | Print | Product List | Glossary Off
Versions: 1 2 3 4 5 6 7 8 9 10 11 12 13 14 15 16 17 18 19 20 21 22 23 24 25 26 27 28

000
ASUS41 KALY 220110
RWRALY

NEW YORK STATE HOURLY WEATHER ROUNDUP
NATIONAL WEATHER SERVICE ALBANY NY
900 PM EDT MON AUG 21 2017

NOTE: "FAIR" INDICATES FEW OR NO CLOUDS BELOW 12,000 FEET WITH NO
SIGNIFICANT WEATHER AND/OR NO OBSTRUCTIONS TO VISIBILITY.

NYZ032-033-038>043-046>054-057>066-NYZ062>081-082-084-220200-
EAST


CITY           SKY/WX    TMP DP  RH WIND       PRES   REMARKS
ALBANY         PTCLDY    78  67  68 S7        30.06R
GLENS FALLS    CLEAR     70  65  84 CALM      30.05S
POUGHKEEPSIE   MOCLDY    75  68  78 SE3       30.08R
NEWBURGH       PTCLDY    79  72  78 SW6       30.11S
MONTGOMERY     CLEAR     76  70  82 SW5       30.09S
WHITE PLAINS   CLEAR     76  68  76 S5        30.11S
ISLIP          PTCLDY    76  71  85 SW10      30.12S
NEW YORK CITY  MOCLDY    81  71  71 S9        30.10S
CENTRAL PARK   CLEAR     80  68  66 VRB7      30.14R
$$

NYZ005>009-017-018-044>046-055-056-220200-
CENTRAL


CITY           SKY/WX    TMP DP  RH WIND       PRES   REMARKS
FULTON         PTCLDY    70  67  90 CALM      30.04S
SYRACUSE       MOCLDY    73  67  81 CALM      30.04R
ROME           CLOUDY    72  68  87 CALM      30.05S
ELMIRA         PTCLDY    69  32  25 CALM      30.08R
BINGHAMTON     CLEAR     65  64  97 S5        30.12S
MONTICELLO     CLEAR     73  69  87 S6        30.15S
$$

NYZ026>034-041>043-087-220200-
NORTH


CITY           SKY/WX    TMP DP  RH WIND       PRES   REMARKS
WATERTOWN      CLEAR     70  67  90 S5        30.02F
FORT DRUM      NOT AVBL
OGDENSBURG     FAIR      73  65  77 SW3       30.01R
MASSENA        CLEAR     74  65  73 SW5       30.01R
SARANAC LAKE   CLEAR     66  62  87 CALM      30.07S
PLATTSBURGH    CLEAR     70  65  84 CALM      30.00R
$$

NYZ001>004-010>016-019>021-085-220200-
WEST


CITY           SKY/WX    TMP DP  RH WIND       PRES   REMARKS
NIAGARA FALLS  CLEAR     76  67  73 S6        30.03F
BUFFALO        PTCLDY    75  68  78 SW3       30.05S
DUNKIRK        PTCLDY    71  68  90 S3        30.06R
JAMESTOWN      CLEAR     71  64  78 S3        30.12S
WELLSVILLE     PTCLDY    73  57  57 SW6       30.16R
ROCHESTER      MOCLDY    75  68  78 W3        30.04S
PENN YAN       CLEAR     71  65  81 CALM      30.08R
$$

             KEY
       WCI = WIND CHILL INDEX
       VSB = VISIBILITY
       HX  = HEAT INDEX
$$




USA.gov is the U.S. government's official web portal to all federal, state and local government web resources and services.